Terminal Aerodrome Forecast
Issued by NWS Pittsburgh, PA

Current Version | Previous Version | Text Only | Print | Product List | Glossary Off
Versions: 1 2 3 4 5 6 7 8 9 10 11 12 13 14 15 16 17 18 19 20 21 22 23 24 25 26 27 28 29 30

000
FTUS41 KPBZ 032000 AAB
TAFPIT
TAF AMD
KPIT 032030Z 0321/0424 16005KT 5SM -RA OVC015
     FM040000 20005KT 2SM -RA BR OVC007 WS020/23045KT
     FM041300 VRB05KT 4SM -SN OVC010
     FM042000 32008KT 2SM -SN BR OVC007=

USA.gov is the U.S. government's official web portal to all federal, state and local government web resources and services.